This is the latest recevied weather packets stored in our database for station/object W0VI. If no packets are shown the sender has not sent any weather packets the latest 10 day(s).
| Time | Temp. | Humidity | Pressure | Rain* | Wind** | Luminosity | Snow |
|---|---|---|---|---|---|---|---|
| 1778078884 | 3.89° C | 56% | 1016.8 hPa | 0 mm | - | 147 W/m² | - |
| 1778078580 | 3.89° C | 56% | 1017.1 hPa | 0 mm | - | 124 W/m² | - |
| 1778078278 | 3.89° C | 56% | 1016.9 hPa | 0 mm | - | 171 W/m² | - |
| 1778077975 | 4.44° C | 55% | 1017 hPa | 0 mm | - | 190 W/m² | - |
| 1778077673 | 4.44° C | 55% | 1016.9 hPa | 0 mm | - | 170 W/m² | - |
| 1778077371 | 4.44° C | 55% | 1016.8 hPa | 0 mm | - | 173 W/m² | - |
| 1778077069 | 4.44° C | 56% | 1016.9 hPa | 0 mm | - | 244 W/m² | - |
| 1778076767 | 3.89° C | 56% | 1017 hPa | 0 mm | - | 234 W/m² | - |
| 1778076464 | 3.89° C | 56% | 1017.1 hPa | 0 mm | - | 239 W/m² | - |
| 1778076161 | 3.89° C | 57% | 1016.9 hPa | 0 mm | - | 209 W/m² | - |
| 1778075858 | 3.89° C | 57% | 1016.9 hPa | 0 mm | - | 196 W/m² | - |
| 1778075554 | 3.89° C | 58% | 1016.8 hPa | 0 mm | - | 199 W/m² | - |
| 1778075251 | 3.89° C | 57% | 1016.7 hPa | 0 mm | - | 298 W/m² | - |
| 1778074947 | 3.33° C | 58% | 1016.8 hPa | 0 mm | - | 235 W/m² | - |
| 1778074645 | 3.33° C | 58% | 1016.7 hPa | 0 mm | - | 186 W/m² | - |
| 1778074341 | 3.89° C | 58% | 1016.6 hPa | 0 mm | - | 217 W/m² | - |
| 1778074038 | 3.33° C | 59% | 1016.6 hPa | 0 mm | - | 208 W/m² | - |
| 1778073735 | 3.33° C | 60% | 1016.5 hPa | 0 mm | - | 206 W/m² | - |
| 1778073433 | 3.33° C | 60% | 1016.6 hPa | 0 mm | - | 232 W/m² | - |
| 1778073129 | 3.33° C | 59% | 1016.6 hPa | 0 mm | - | 308 W/m² | - |
| 1778072826 | 3.33° C | 60% | 1016.6 hPa | 0 mm | - | 260 W/m² | - |
| 1778072523 | 2.78° C | 62% | 1016.3 hPa | 0 mm | - | 210 W/m² | - |
| 1778072221 | 2.78° C | 62% | 1016.2 hPa | 0 mm | - | 209 W/m² | - |
| 1778071919 | 2.78° C | 63% | 1016.1 hPa | 0 mm | - | 148 W/m² | - |
| 1778071616 | 2.22° C | 64% | 1016 hPa | 0 mm | - | 120 W/m² | - |
* Rain latest hour (hover to see other rain measurements)
** Current wind speed in m/s (hover to see current wind gust speed)